Radiation Dose at Monitoring Post of Fukushima Daini Nuclear Power Station
Date,Time,MP-1(microSv/h),MP-2(microSv/h),MP-3(microSv/h),MP-4(microSv/h),MP-5(microSv/h),MP-6(microSv/h),MP-7(microSv/h),Wind Direction,Wind Velocity(m/s),Rain
2015/12/25,00:00,0.451,0.267,0.471,0.430,0.416,0.218,0.188,-,CALM,No
2015/12/25,00:10,0.452,0.266,0.471,0.430,0.414,0.218,0.188,north,0.6,No
2015/12/25,00:20,0.450,0.266,0.473,0.429,0.418,0.219,0.188,north,1.4,No
2015/12/25,00:30,0.451,0.266,0.471,0.430,0.416,0.216,0.189,north-northwest,1.1,No
2015/12/25,00:40,0.451,0.266,0.473,0.429,0.415,0.216,0.189,north,0.7,No
2015/12/25,00:50,0.450,0.266,0.473,0.427,0.416,0.217,0.188,-,CALM,No
2015/12/25,01:00,0.450,0.266,0.470,0.429,0.416,0.218,0.188,west-southwest,1.3,No
2015/12/25,01:10,0.451,0.266,0.472,0.430,0.414,0.217,0.188,southwest,1.7,No
2015/12/25,01:20,0.450,0.268,0.473,0.428,0.415,0.217,0.189,south-southwest,2.0,No
2015/12/25,01:30,0.450,0.265,0.471,0.427,0.417,0.217,0.188,south,2.1,No
2015/12/25,01:40,0.450,0.266,0.472,0.428,0.415,0.217,0.188,south,1.9,No
2015/12/25,01:50,0.452,0.266,0.472,0.427,0.416,0.218,0.188,south-southwest,2.4,No
2015/12/25,02:00,0.450,0.265,0.470,0.429,0.417,0.217,0.188,south,2.4,No
2015/12/25,02:10,0.453,0.265,0.475,0.429,0.415,0.217,0.188,south-southwest,2.5,No
2015/12/25,02:20,0.452,0.267,0.471,0.428,0.416,0.217,0.188,south-southwest,2.9,No
2015/12/25,02:30,0.449,0.266,0.470,0.429,0.418,0.216,0.188,south-southwest,2.6,No
2015/12/25,02:40,0.452,0.266,0.475,0.430,0.416,0.217,0.188,south-southwest,2.5,No
2015/12/25,02:50,0.451,0.266,0.470,0.427,0.416,0.218,0.188,south-southwest,2.6,No
2015/12/25,03:00,0.449,0.267,0.471,0.430,0.419,0.217,0.188,south,4.2,No
2015/12/25,03:10,0.452,0.266,0.474,0.430,0.417,0.216,0.188,south,3.1,No
2015/12/25,03:20,0.450,0.267,0.471,0.428,0.417,0.218,0.189,south-southwest,5.0,No
2015/12/25,03:30,0.451,0.269,0.472,0.430,0.417,0.217,0.189,south,8.0,No
2015/12/25,03:40,0.452,0.267,0.472,0.430,0.418,0.217,0.188,south,9.2,No
2015/12/25,03:50,0.451,0.268,0.471,0.428,0.416,0.218,0.189,south-southwest,9.3,No
2015/12/25,04:00,0.453,0.268,0.474,0.430,0.418,0.218,0.188,south-southwest,12.0,No
2015/12/25,04:10,0.450,0.267,0.474,0.430,0.416,0.217,0.189,south-southwest,11.2,No
2015/12/25,04:20,0.450,0.267,0.473,0.430,0.416,0.217,0.190,south-southwest,9.6,No
2015/12/25,04:30,0.452,0.268,0.476,0.432,0.417,0.218,0.189,south-southwest,9.8,No
2015/12/25,04:40,0.451,0.267,0.472,0.430,0.417,0.218,0.190,south-southwest,9.2,No
2015/12/25,04:50,0.451,0.269,0.472,0.432,0.416,0.218,0.190,southwest,8.4,No
2015/12/25,05:00,0.452,0.269,0.474,0.432,0.418,0.219,0.188,southwest,6.2,No
2015/12/25,05:10,0.449,0.268,0.472,0.430,0.415,0.219,0.188,south-southwest,6.1,No
2015/12/25,05:20,0.452,0.268,0.474,0.430,0.416,0.217,0.190,south-southwest,6.5,No
2015/12/25,05:30,0.451,0.269,0.475,0.431,0.418,0.217,0.189,southwest,6.5,No
2015/12/25,05:40,0.451,0.268,0.472,0.431,0.417,0.218,0.189,southwest,5.9,No
2015/12/25,05:50,0.453,0.267,0.475,0.430,0.418,0.218,0.190,southwest,6.8,No
2015/12/25,06:00,0.450,0.268,0.472,0.431,0.418,0.217,0.188,southwest,8.7,No
2015/12/25,06:10,0.452,0.266,0.472,0.432,0.418,0.219,0.191,southwest,8.9,No
2015/12/25,06:20,0.452,0.267,0.474,0.430,0.417,0.219,0.189,southwest,9.3,No
2015/12/25,06:30,0.450,0.270,0.473,0.432,0.418,0.220,0.189,southwest,8.7,No
2015/12/25,06:40,0.452,0.268,0.475,0.432,0.417,0.218,0.189,south-southwest,8.4,No
2015/12/25,06:50,0.452,0.267,0.475,0.432,0.418,0.218,0.189,south-southwest,7.4,No
2015/12/25,07:00,0.451,0.268,0.471,0.433,0.420,0.217,0.189,south-southwest,5.7,No
2015/12/25,07:10,0.454,0.267,0.475,0.430,0.418,0.219,0.190,south-southwest,4.3,No
2015/12/25,07:20,0.451,0.267,0.474,0.431,0.418,0.218,0.189,south-southwest,5.0,No
2015/12/25,07:30,0.452,0.267,0.471,0.432,0.418,0.218,0.190,south-southwest,5.6,No
2015/12/25,07:40,0.454,0.267,0.475,0.430,0.416,0.218,0.189,west-southwest,5.9,No
2015/12/25,07:50,0.451,0.268,0.472,0.431,0.416,0.218,0.188,west,6.6,No
2015/12/25,08:00,0.451,0.269,0.473,0.430,0.418,0.217,0.189,west-southwest,4.3,No
2015/12/25,08:10,0.452,0.265,0.474,0.431,0.416,0.218,0.189,west-northwest,1.7,No
2015/12/25,08:20,0.450,0.266,0.470,0.432,0.418,0.218,0.190,northwest,1.2,No
2015/12/25,08:30,0.453,0.268,0.474,0.431,0.418,0.217,0.188,west-northwest,3.5,No
2015/12/25,08:40,0.449,0.266,0.472,0.429,0.415,0.217,0.189,west,5.8,No
2015/12/25,08:50,0.452,0.267,0.472,0.430,0.417,0.218,0.187,west-northwest,7.7,No
2015/12/25,09:00,0.452,0.267,0.474,0.428,0.416,0.218,0.190,west-northwest,5.8,No
2015/12/25,09:10,0.450,0.266,0.470,0.431,0.417,0.218,0.189,west-northwest,6.1,No
2015/12/25,09:20,0.454,0.267,0.472,0.429,0.417,0.218,0.189,west-northwest,7.9,No
2015/12/25,09:30,0.452,0.266,0.472,0.431,0.417,0.218,0.188,west-northwest,7.0,No
2015/12/25,09:40,0.453,0.267,0.471,0.429,0.419,0.218,0.189,west,8.4,No
2015/12/25,09:50,0.453,0.266,0.473,0.429,0.415,0.217,0.188,west-northwest,8.4,No
2015/12/25,10:00,0.451,0.267,0.471,0.428,0.419,0.219,0.188,northwest,8.1,No
2015/12/25,10:10,0.452,0.266,0.474,0.431,0.416,0.218,0.188,north-northwest,4.3,No
2015/12/25,10:20,0.450,0.266,0.471,0.431,0.418,0.218,0.190,northwest,5.6,No
2015/12/25,10:30,0.454,0.267,0.474,0.428,0.417,0.218,0.189,north-northwest,4.0,No
2015/12/25,10:40,0.448,0.267,0.472,0.432,0.417,0.218,0.188,west-northwest,8.2,No
2015/12/25,10:50,0.450,0.266,0.473,0.429,0.417,0.218,0.189,west-northwest,8.9,No
2015/12/25,11:00,0.450,0.266,0.473,0.431,0.416,0.219,0.188,west-northwest,8.7,No
2015/12/25,11:10,0.452,0.266,0.473,0.429,0.415,0.218,0.189,west-northwest,11.5,No
2015/12/25,11:20,0.452,0.265,0.475,0.431,0.419,0.218,0.189,northwest,12.3,No
2015/12/25,11:30,0.454,0.269,0.473,0.431,0.419,0.219,0.189,west-northwest,18.7,No
2015/12/25,11:40,0.452,0.266,0.476,0.434,0.418,0.219,0.190,west-northwest,17.1,No
2015/12/25,11:50,0.456,0.267,0.474,0.430,0.422,0.219,0.190,west-northwest,13.9,No
2015/12/25,12:00,0.453,0.267,0.475,0.434,0.417,0.218,0.189,west,14.2,No
2015/12/25,12:10,0.454,0.267,0.474,0.429,0.420,0.219,0.191,west-northwest,12.2,No
2015/12/25,12:20,0.454,0.269,0.474,0.433,0.416,0.219,0.190,west-northwest,13.4,No
2015/12/25,12:30,0.454,0.268,0.476,0.432,0.421,0.219,0.189,west-northwest,9.8,No
2015/12/25,12:40,0.455,0.268,0.474,0.434,0.419,0.221,0.191,west-northwest,8.5,No
2015/12/25,12:50,0.454,0.268,0.478,0.434,0.422,0.219,0.190,west,11.2,No
2015/12/25,13:00,0.456,0.267,0.473,0.431,0.420,0.219,0.191,west-northwest,10.6,No
2015/12/25,13:10,0.453,0.269,0.477,0.435,0.419,0.219,0.190,west-northwest,10.3,No
2015/12/25,13:20,0.454,0.267,0.474,0.431,0.422,0.218,0.190,west-northwest,11.2,No
2015/12/25,13:30,0.453,0.268,0.476,0.434,0.418,0.219,0.190,west-northwest,9.5,No
2015/12/25,13:40,0.453,0.267,0.475,0.431,0.421,0.218,0.191,west-northwest,8.1,No
2015/12/25,13:50,0.459,0.269,0.476,0.435,0.419,0.220,0.190,northwest,4.6,No
2015/12/25,14:00,0.453,0.268,0.476,0.430,0.420,0.218,0.191,north-northwest,6.0,No
2015/12/25,14:10,0.454,0.268,0.475,0.433,0.420,0.219,0.190,northwest,6.2,No
2015/12/25,14:20,0.456,0.268,0.477,0.430,0.417,0.219,0.191,northwest,6.5,No
2015/12/25,14:30,0.453,0.268,0.476,0.434,0.420,0.219,0.192,northwest,7.3,No
2015/12/25,14:40,0.457,0.268,0.477,0.434,0.419,0.220,0.190,north-northwest,8.2,No
2015/12/25,14:50,0.455,0.270,0.475,0.433,0.418,0.220,0.190,north-northwest,8.9,No
2015/12/25,15:00,0.456,0.268,0.477,0.438,0.421,0.220,0.192,northwest,9.3,No
2015/12/25,15:10,0.456,0.268,0.478,0.433,0.418,0.219,0.191,northwest,5.4,No
2015/12/25,15:20,0.454,0.268,0.475,0.436,0.418,0.219,0.190,north,4.6,No
2015/12/25,15:30,0.457,0.268,0.478,0.435,0.420,0.220,0.192,north,5.8,No
2015/12/25,15:40,0.456,0.268,0.479,0.434,0.418,0.219,0.191,north,11.5,No
2015/12/25,15:50,0.455,0.270,0.477,0.436,0.419,0.220,0.191,north-northwest,10.3,No
2015/12/25,16:00,0.459,0.268,0.479,0.434,0.420,0.219,0.191,north,9.5,No
2015/12/25,16:10,0.455,0.269,0.478,0.434,0.419,0.220,0.190,north-northwest,8.8,No
2015/12/25,16:20,0.458,0.270,0.476,0.436,0.421,0.220,0.192,north-northwest,7.7,No
2015/12/25,16:30,0.457,0.270,0.479,0.436,0.421,0.220,0.193,north-northwest,7.5,No
2015/12/25,16:40,0.456,0.270,0.479,0.436,0.420,0.219,0.192,northwest,9.3,No
2015/12/25,16:50,0.458,0.271,0.476,0.435,0.420,0.221,0.193,north-northwest,8.9,No
2015/12/25,17:00,0.458,0.271,0.480,0.435,0.421,0.220,0.193,north-northwest,7.9,No
2015/12/25,17:10,0.457,0.269,0.479,0.434,0.421,0.219,0.192,north-northwest,7.9,No
2015/12/25,17:20,0.457,0.269,0.477,0.436,0.418,0.219,0.192,north-northwest,8.1,No
2015/12/25,17:30,0.457,0.271,0.480,0.435,0.421,0.221,0.192,north-northwest,8.9,No
2015/12/25,17:40,0.455,0.270,0.478,0.435,0.420,0.220,0.191,north-northwest,8.4,No
2015/12/25,17:50,0.456,0.268,0.477,0.436,0.418,0.220,0.193,north-northwest,7.9,No
2015/12/25,18:00,0.457,0.269,0.479,0.437,0.420,0.220,0.191,north-northwest,6.6,No
2015/12/25,18:10,0.457,0.270,0.478,0.435,0.421,0.220,0.193,north-northwest,7.0,No
2015/12/25,18:20,0.456,0.269,0.478,0.434,0.419,0.220,0.191,northwest,8.7,No
2015/12/25,18:30,0.457,0.270,0.476,0.436,0.417,0.222,0.192,northwest,6.1,No
2015/12/25,18:40,0.457,0.268,0.479,0.435,0.419,0.221,0.192,northwest,4.6,No
2015/12/25,18:50,0.454,0.270,0.479,0.434,0.421,0.219,0.192,north-northwest,3.3,No
2015/12/25,19:00,0.456,0.269,0.476,0.437,0.420,0.220,0.191,north,4.2,No
2015/12/25,19:10,0.458,0.268,0.479,0.435,0.416,0.219,0.192,north,4.8,No
2015/12/25,19:20,0.457,0.269,0.478,0.434,0.420,0.219,0.192,north-northwest,3.6,No
2015/12/25,19:30,0.455,0.269,0.477,0.434,0.421,0.220,0.192,northwest,2.6,No
2015/12/25,19:40,0.457,0.268,0.478,0.434,0.418,0.220,0.191,north-northwest,3.1,No
2015/12/25,19:50,0.457,0.269,0.477,0.432,0.418,0.219,0.191,north-northwest,2.9,No
2015/12/25,20:00,0.456,0.268,0.477,0.435,0.419,0.219,0.191,northwest,3.1,No
2015/12/25,20:10,0.456,0.269,0.478,0.437,0.418,0.220,0.192,north-northwest,2.3,No
2015/12/25,20:20,0.456,0.268,0.476,0.436,0.417,0.220,0.191,north,1.6,No
2015/12/25,20:30,0.456,0.268,0.476,0.434,0.421,0.220,0.190,north-northwest,1.1,No
2015/12/25,20:40,0.458,0.269,0.479,0.436,0.420,0.220,0.192,north-northwest,1.0,No
2015/12/25,20:50,0.457,0.270,0.478,0.435,0.418,0.220,0.192,north,1.0,No
2015/12/25,21:00,0.455,0.268,0.479,0.435,0.418,0.219,0.191,north-northwest,2.5,No
2015/12/25,21:10,0.456,0.269,0.479,0.436,0.421,0.221,0.192,north-northwest,2.8,No
2015/12/25,21:20,0.458,0.269,0.479,0.436,0.418,0.220,0.193,northwest,2.0,No
2015/12/25,21:30,0.455,0.269,0.477,0.434,0.419,0.219,0.193,north-northwest,0.9,No
2015/12/25,21:40,0.455,0.269,0.479,0.437,0.420,0.219,0.193,north-northeast,1.9,No
2015/12/25,21:50,0.457,0.269,0.477,0.434,0.419,0.219,0.192,-,CALM,No
2015/12/25,22:00,0.455,0.270,0.478,0.434,0.418,0.219,0.192,north,1.5,No
2015/12/25,22:10,0.456,0.269,0.477,0.436,0.419,0.220,0.191,north,1.5,No
2015/12/25,22:20,0.458,0.268,0.480,0.436,0.419,0.221,0.192,north,0.9,No
2015/12/25,22:30,0.455,0.269,0.477,0.434,0.418,0.220,0.192,west,0.6,No
2015/12/25,22:40,0.455,0.270,0.477,0.434,0.417,0.220,0.192,north-northwest,0.8,No
2015/12/25,22:50,0.456,0.269,0.478,0.436,0.419,0.219,0.191,west-northwest,0.7,No
2015/12/25,23:00,0.454,0.268,0.478,0.434,0.419,0.220,0.192,-,CALM,No
2015/12/25,23:10,0.456,0.269,0.477,0.434,0.419,0.219,0.192,-,CALM,No
2015/12/25,23:20,0.458,0.269,0.481,0.436,0.419,0.220,0.191,north,1.2,No
2015/12/25,23:30,0.457,0.270,0.479,0.434,0.420,0.220,0.192,north-northwest,1.7,No
2015/12/25,23:40,0.457,0.269,0.479,0.435,0.419,0.220,0.192,north-northwest,2.0,Yes
2015/12/25,23:50,0.458,0.271,0.480,0.436,0.420,0.221,0.192,north-northwest,3.3,No
